Погода в Киншасе

Демократическая Республика Конго     4°18′36″S   15°17′22″E
темп.,
°C
ветер,
м/с
пор.,
м/с
влажн.,
%
обл.,
%
осадки,
мм/ч
давл.,
гПа
погр.,
м
8 декабря, ср
ср801:00+22вюв119470 0.1 101251
04:00+21в119481 0.3 101234
07:00+22юв1189100 0.3 1013168
10:00+27вюв1265100 0.0 1014681
13:00+32в1151100 0.0 10101344
16:00+31всв125318 0.0 10081589
19:00+26юз237461 0.1 1009122
22:00+25зюз01826 0.0 101152
9 декабря, чт
чт901:00+23з018799 0.0 101150
04:00+23юв00915 0.0 101035
07:00+24всв11867 0.0 1012216
10:00+30вюв116113 0.1 1011882
13:00+33св24468 0.3 10081979
16:00+32в345015 0.0 10061494
19:00+26всв257489 0.4 1008259
22:00+24св129154 1.0 101086
10 декабря, пт
пт1001:00+23в1193100 1.0 100937
04:00+22вюв119493 0.0 100855
07:00+23вюв11878 0.0 1010192
10:00+30в23585 0.0 1010947
13:00+33в234476 0.0 10061923
16:00+33св2349100 0.0 10041652
19:00+28з1165100 0.0 100613
22:00+26зюз117465 0.1 100823
11 декабря, сб
сб1101:00+24ююв008588 0.8 100722
04:00+24ю00865 0.0 100719
07:00+25ююз12815 0.2 1009211
10:00+31ююз11575 0.1 1009923
13:00+34св224580 0.4 10061863
16:00+32с1253100 0.3 10041263
19:00+28зюз2368100 0.5 1006140
22:00+26юз1181100 2.1 1009118
12 декабря, вс
вс1201:00+25св1185100 4.1 1008133
04:00+24з1194100 3.0 100878
07:00+25з019078 3.4 1010182
10:00+30ююз116123 1.6 1010856
13:00+32ююв1251100 3.5 10071521
16:00+30юз226098 0.2 1006988
19:00+26зюз127594 0.2 1007122
22:00+25зсз1183100 0.0 100979